N816LP KPQI-KPVD

Flight info

Callsign N816LP
Flight time 1h 46m
Altitude 16000
Route KPQI MLT BGR LFV INNDY KPVD
Aircraft B350/L-VGDW/C

Departure

Time 2026-05-07 00:56
Airport Presque Isle International Airport (KPQI)

Arrival

Time 2026-05-07 02:43
Airport Rhode Island T. F. Green International Airport (KPVD)
Time Latitude Longitude Altitude Speed Heading
2026-05-07 00:36 46.69637 -68.04811 518 ft 0 kts 253°
2026-05-07 00:40 46.69637 -68.04809 518 ft 2 kts 253°
2026-05-07 00:41 46.69642 -68.04784 517 ft 3 kts 253°
2026-05-07 00:41 46.69647 -68.04759 517 ft 2 kts 253°
2026-05-07 00:41 46.69648 -68.04757 517 ft 0 kts 254°
2026-05-07 00:52 46.69654 -68.04771 518 ft 1 kts 328°
2026-05-07 00:52 46.69667 -68.04848 519 ft 8 kts 279°
2026-05-07 00:53 46.69727 -68.04891 522 ft 12 kts 345°
2026-05-07 00:53 46.69819 -68.04926 526 ft 15 kts 345°
2026-05-07 00:53 46.69927 -68.04966 530 ft 17 kts 346°
2026-05-07 00:53 46.70048 -68.05011 535 ft 19 kts 346°
2026-05-07 00:54 46.70113 -68.05059 538 ft 8 kts 281°
2026-05-07 00:54 46.70100 -68.05163 539 ft 8 kts 257°
2026-05-07 00:54 46.70099 -68.05174 539 ft 0 kts 256°
2026-05-07 00:55 46.70093 -68.05206 539 ft 9 kts 253°
2026-05-07 00:55 46.70034 -68.05255 538 ft 10 kts 164°
2026-05-07 00:55 46.70030 -68.05253 538 ft 0 kts 163°
2026-05-07 00:55 46.69868 -68.05189 530 ft 75 kts 165°
2026-05-07 00:56 46.69085 -68.04890 567 ft 149 kts 165°
2026-05-07 00:56 46.67999 -68.04468 947 ft 172 kts 165°
2026-05-07 00:56 46.66789 -68.04632 1384 ft 185 kts 203°
2026-05-07 00:56 46.65548 -68.05348 1803 ft 197 kts 203°
2026-05-07 00:57 46.64253 -68.06103 2208 ft 203 kts 203°
2026-05-07 00:57 46.62933 -68.06886 2615 ft 206 kts 203°
2026-05-07 00:57 46.61601 -68.07673 3034 ft 206 kts 202°
2026-05-07 00:57 46.60228 -68.08272 3433 ft 206 kts 197°
2026-05-07 00:58 46.58853 -68.08832 3840 ft 205 kts 199°
2026-05-07 00:58 46.57492 -68.09454 4252 ft 205 kts 200°
2026-05-07 00:58 46.56140 -68.10035 4654 ft 205 kts 200°
2026-05-07 00:58 46.54772 -68.10620 5061 ft 205 kts 200°
2026-05-07 00:59 46.52039 -68.11811 5880 ft 205 kts 201°
2026-05-07 00:59 46.50666 -68.12403 6284 ft 206 kts 201°
2026-05-07 00:59 46.49294 -68.12998 6668 ft 206 kts 201°
2026-05-07 01:00 46.47913 -68.13594 7061 ft 206 kts 201°
2026-05-07 01:00 46.46544 -68.14187 7463 ft 205 kts 201°
2026-05-07 01:00 46.45177 -68.14777 7865 ft 205 kts 201°
2026-05-07 01:00 46.43808 -68.15368 8271 ft 205 kts 201°
2026-05-07 01:01 46.42442 -68.15960 8685 ft 205 kts 201°
2026-05-07 01:01 46.41076 -68.16548 9112 ft 204 kts 201°
2026-05-07 01:01 46.39715 -68.17134 9529 ft 204 kts 201°
2026-05-07 01:01 46.38354 -68.17722 9931 ft 204 kts 201°
2026-05-07 01:02 46.37011 -68.18302 10312 ft 204 kts 201°
2026-05-07 01:02 46.35652 -68.18885 10693 ft 204 kts 202°
2026-05-07 01:02 46.34275 -68.19478 11087 ft 204 kts 202°
2026-05-07 01:02 46.32931 -68.20056 11474 ft 203 kts 202°
2026-05-07 01:03 46.31579 -68.20638 11880 ft 203 kts 202°
2026-05-07 01:03 46.30230 -68.21217 12281 ft 202 kts 202°
2026-05-07 01:03 46.28880 -68.21798 12693 ft 202 kts 202°
2026-05-07 01:03 46.27531 -68.22377 13113 ft 202 kts 202°
2026-05-07 01:04 46.26187 -68.22952 13537 ft 201 kts 202°
2026-05-07 01:04 46.24846 -68.23529 13919 ft 201 kts 202°
2026-05-07 01:04 46.23505 -68.24102 14297 ft 201 kts 203°
2026-05-07 01:04 46.22179 -68.24672 14681 ft 201 kts 202°
2026-05-07 01:05 46.20836 -68.25247 15068 ft 201 kts 202°
2026-05-07 01:05 46.19491 -68.25822 15463 ft 202 kts 202°
2026-05-07 01:05 46.18131 -68.26406 15749 ft 208 kts 203°
2026-05-07 01:05 46.16715 -68.27015 15878 ft 217 kts 202°
2026-05-07 01:06 46.15229 -68.27650 15943 ft 227 kts 202°
2026-05-07 01:06 46.13684 -68.28304 15970 ft 235 kts 202°
2026-05-07 01:06 46.12097 -68.28983 15984 ft 240 kts 202°
2026-05-07 01:06 46.10481 -68.29673 15992 ft 244 kts 202°
2026-05-07 01:07 46.08840 -68.30370 15994 ft 247 kts 202°
2026-05-07 01:07 46.07184 -68.31074 16000 ft 249 kts 202°
2026-05-07 01:07 46.05540 -68.31775 15999 ft 250 kts 202°
2026-05-07 01:07 46.03870 -68.32484 16000 ft 251 kts 202°
2026-05-07 01:08 46.02195 -68.33197 15997 ft 251 kts 202°
2026-05-07 01:08 46.00512 -68.33912 15997 ft 252 kts 202°
2026-05-07 01:08 45.98831 -68.34625 15995 ft 252 kts 202°
2026-05-07 01:08 45.97147 -68.35341 15997 ft 252 kts 202°
2026-05-07 01:09 45.95461 -68.36056 16000 ft 252 kts 202°
2026-05-07 01:09 45.93778 -68.36768 15995 ft 252 kts 202°
2026-05-07 01:09 45.92090 -68.37483 15995 ft 252 kts 202°
2026-05-07 01:09 45.90408 -68.38195 16000 ft 252 kts 202°
2026-05-07 01:10 45.88718 -68.38911 15995 ft 253 kts 202°
2026-05-07 01:10 45.87030 -68.39625 15990 ft 253 kts 201°
2026-05-07 01:10 45.85368 -68.40325 15994 ft 253 kts 202°
2026-05-07 01:10 45.83680 -68.41040 15985 ft 253 kts 202°
2026-05-07 01:11 45.81990 -68.41752 15994 ft 253 kts 202°
2026-05-07 01:11 45.80303 -68.42465 15998 ft 252 kts 201°
2026-05-07 01:11 45.78621 -68.43172 15992 ft 253 kts 201°
2026-05-07 01:11 45.76932 -68.43883 15992 ft 253 kts 201°
2026-05-07 01:12 45.75243 -68.44596 15981 ft 253 kts 201°
2026-05-07 01:12 45.73549 -68.45308 15985 ft 254 kts 201°
2026-05-07 01:12 45.71854 -68.46019 15973 ft 254 kts 201°
2026-05-07 01:12 45.70156 -68.46733 15977 ft 254 kts 201°
2026-05-07 01:13 45.68460 -68.47446 15986 ft 254 kts 201°
2026-05-07 01:13 45.66765 -68.48157 15984 ft 254 kts 201°
2026-05-07 01:13 45.65089 -68.48859 15982 ft 254 kts 201°
2026-05-07 01:13 45.63395 -68.49570 15985 ft 254 kts 201°
2026-05-07 01:14 45.61694 -68.50280 15978 ft 254 kts 201°
2026-05-07 01:14 45.59987 -68.50950 15986 ft 255 kts 200°
2026-05-07 01:14 45.58303 -68.51697 15983 ft 253 kts 205°
2026-05-07 01:14 45.56644 -68.52553 15985 ft 254 kts 203°
2026-05-07 01:15 45.54968 -68.53342 15968 ft 254 kts 203°
2026-05-07 01:15 45.53300 -68.54165 15984 ft 254 kts 204°
2026-05-07 01:15 45.51629 -68.54980 15982 ft 254 kts 203°
2026-05-07 01:15 45.49958 -68.55788 15982 ft 254 kts 204°
2026-05-07 01:16 45.48287 -68.56604 15984 ft 254 kts 204°
2026-05-07 01:16 45.46639 -68.57405 15985 ft 254 kts 203°
2026-05-07 01:16 45.44967 -68.58216 15984 ft 254 kts 203°
2026-05-07 01:16 45.43295 -68.59028 15985 ft 254 kts 203°
2026-05-07 01:17 45.41625 -68.59838 15990 ft 254 kts 203°
2026-05-07 01:17 45.39944 -68.60654 15988 ft 254 kts 203°
2026-05-07 01:17 45.38267 -68.61464 15987 ft 255 kts 203°
2026-05-07 01:17 45.36588 -68.62278 15987 ft 255 kts 203°
2026-05-07 01:18 45.34911 -68.63090 15987 ft 255 kts 203°
2026-05-07 01:18 45.33232 -68.63901 15989 ft 255 kts 203°
2026-05-07 01:18 45.31551 -68.64714 15988 ft 255 kts 203°
2026-05-07 01:18 45.29869 -68.65526 15989 ft 255 kts 203°
2026-05-07 01:19 45.28190 -68.66336 15988 ft 255 kts 203°
2026-05-07 01:19 45.26535 -68.67134 15989 ft 255 kts 203°
2026-05-07 01:19 45.24856 -68.67944 15988 ft 255 kts 203°
2026-05-07 01:19 45.23174 -68.68753 15993 ft 255 kts 203°
2026-05-07 01:20 45.21491 -68.69564 15989 ft 255 kts 203°
2026-05-07 01:20 45.19812 -68.70372 15992 ft 255 kts 203°
2026-05-07 01:20 45.18126 -68.71182 15992 ft 255 kts 203°
2026-05-07 01:20 45.16446 -68.71990 15989 ft 255 kts 203°
2026-05-07 01:21 45.14765 -68.72797 15993 ft 255 kts 203°
2026-05-07 01:21 45.13081 -68.73605 15993 ft 255 kts 203°
2026-05-07 01:21 45.11399 -68.74411 15994 ft 255 kts 203°
2026-05-07 01:21 45.09721 -68.75216 15990 ft 255 kts 203°
2026-05-07 01:22 45.08039 -68.76022 15991 ft 255 kts 203°
2026-05-07 01:22 45.06382 -68.76814 15991 ft 254 kts 203°
2026-05-07 01:22 45.04702 -68.77618 15990 ft 254 kts 203°
2026-05-07 01:22 45.03025 -68.78420 15991 ft 254 kts 203°
2026-05-07 01:23 45.01352 -68.79220 15991 ft 254 kts 203°
2026-05-07 01:23 44.99672 -68.80022 15992 ft 254 kts 203°
2026-05-07 01:23 44.97997 -68.80821 15988 ft 254 kts 203°
2026-05-07 01:23 44.96321 -68.81620 15992 ft 254 kts 203°
2026-05-07 01:24 44.94651 -68.82417 15989 ft 254 kts 203°
2026-05-07 01:24 44.92973 -68.83215 15990 ft 254 kts 203°
2026-05-07 01:24 44.91319 -68.84003 15987 ft 254 kts 203°
2026-05-07 01:24 44.89645 -68.84800 15991 ft 254 kts 203°
2026-05-07 01:25 44.87973 -68.85595 15989 ft 254 kts 203°
2026-05-07 01:25 44.86305 -68.86405 15990 ft 253 kts 204°
2026-05-07 01:25 44.84641 -68.87234 15992 ft 254 kts 201°
2026-05-07 01:25 44.82936 -68.87919 15994 ft 254 kts 201°
2026-05-07 01:26 44.81249 -68.88669 15990 ft 254 kts 202°
2026-05-07 01:26 44.79552 -68.89401 15992 ft 255 kts 201°
2026-05-07 01:26 44.77858 -68.90126 15991 ft 254 kts 202°
2026-05-07 01:26 44.76164 -68.90861 15986 ft 254 kts 202°
2026-05-07 01:27 44.74473 -68.91588 15988 ft 254 kts 202°
2026-05-07 01:27 44.72781 -68.92318 15989 ft 254 kts 202°
2026-05-07 01:27 44.71086 -68.93048 15987 ft 254 kts 201°
2026-05-07 01:27 44.69394 -68.93776 15990 ft 254 kts 202°
2026-05-07 01:28 44.67719 -68.94499 15993 ft 254 kts 202°
2026-05-07 01:28 44.66025 -68.95223 15994 ft 254 kts 202°
2026-05-07 01:28 44.64332 -68.95953 15991 ft 254 kts 202°
2026-05-07 01:28 44.62640 -68.96679 15992 ft 254 kts 202°
2026-05-07 01:29 44.60946 -68.97404 15995 ft 254 kts 202°
2026-05-07 01:29 44.59252 -68.98133 15995 ft 254 kts 202°
2026-05-07 01:29 44.57561 -68.98856 15992 ft 254 kts 202°
2026-05-07 01:29 44.55871 -68.99581 15998 ft 254 kts 202°
2026-05-07 01:30 44.54179 -69.00305 15997 ft 254 kts 202°
2026-05-07 01:30 44.52492 -69.01026 16004 ft 254 kts 202°
2026-05-07 01:30 44.50799 -69.01750 16005 ft 254 kts 202°
2026-05-07 01:30 44.49107 -69.02474 15999 ft 254 kts 202°
2026-05-07 01:31 44.47417 -69.03195 15997 ft 254 kts 202°
2026-05-07 01:31 44.45747 -69.03908 15995 ft 254 kts 202°
2026-05-07 01:31 44.44055 -69.04630 15999 ft 254 kts 202°
2026-05-07 01:31 44.42365 -69.05350 16004 ft 254 kts 202°
2026-05-07 01:32 44.40675 -69.06071 15994 ft 254 kts 202°
2026-05-07 01:32 44.38984 -69.06789 15998 ft 254 kts 202°
2026-05-07 01:32 44.37297 -69.07508 16005 ft 253 kts 202°
2026-05-07 01:32 44.35608 -69.08225 16004 ft 253 kts 202°
2026-05-07 01:33 44.33916 -69.08945 16001 ft 253 kts 202°
2026-05-07 01:33 44.32230 -69.09661 16002 ft 253 kts 202°
2026-05-07 01:33 44.30545 -69.10375 16010 ft 253 kts 202°
2026-05-07 01:33 44.28867 -69.11089 16005 ft 252 kts 202°
2026-05-07 01:34 44.27186 -69.11801 16011 ft 252 kts 202°
2026-05-07 01:34 44.25527 -69.12502 16010 ft 252 kts 202°
2026-05-07 01:34 44.23848 -69.13215 15998 ft 252 kts 202°
2026-05-07 01:34 44.22175 -69.13922 16017 ft 251 kts 202°
2026-05-07 01:35 44.20500 -69.14632 16005 ft 251 kts 202°
2026-05-07 01:35 44.19396 -69.15098 16018 ft 251 kts 202°
2026-05-07 01:35 44.17160 -69.16042 16017 ft 251 kts 202°
2026-05-07 01:35 44.16051 -69.16511 16022 ft 252 kts 202°
2026-05-07 01:36 44.14372 -69.17219 16020 ft 252 kts 202°
2026-05-07 01:36 44.12694 -69.17927 16020 ft 252 kts 202°
2026-05-07 01:36 44.11013 -69.18635 16018 ft 252 kts 202°
2026-05-07 01:36 44.09333 -69.19343 16017 ft 252 kts 202°
2026-05-07 01:37 44.07654 -69.20051 16018 ft 252 kts 202°
2026-05-07 01:37 44.05972 -69.20757 16016 ft 252 kts 203°
2026-05-07 01:37 44.04294 -69.21463 16015 ft 251 kts 203°
2026-05-07 01:37 44.02622 -69.22166 16017 ft 251 kts 203°
2026-05-07 01:38 44.00948 -69.22870 16018 ft 251 kts 203°
2026-05-07 01:38 43.99275 -69.23572 16014 ft 251 kts 203°
2026-05-07 01:38 43.97622 -69.24265 16014 ft 251 kts 203°
2026-05-07 01:38 43.95952 -69.24965 16013 ft 251 kts 203°
2026-05-07 01:39 43.94282 -69.25665 16014 ft 251 kts 203°
2026-05-07 01:39 43.92613 -69.26365 16015 ft 251 kts 203°
2026-05-07 01:39 43.90942 -69.27065 16010 ft 250 kts 203°
2026-05-07 01:39 43.89281 -69.27758 16011 ft 249 kts 203°
2026-05-07 01:40 43.87623 -69.28451 16009 ft 249 kts 203°
2026-05-07 01:40 43.85962 -69.29145 16012 ft 249 kts 203°
2026-05-07 01:40 43.84298 -69.29841 16008 ft 250 kts 203°
2026-05-07 01:40 43.82636 -69.30534 16007 ft 250 kts 203°
2026-05-07 01:41 43.80973 -69.31228 16008 ft 249 kts 203°
2026-05-07 01:41 43.79330 -69.31913 16010 ft 249 kts 203°
2026-05-07 01:41 43.77665 -69.32606 16008 ft 249 kts 203°
2026-05-07 01:41 43.76003 -69.33298 16005 ft 249 kts 203°
2026-05-07 01:42 43.74341 -69.33990 16004 ft 249 kts 203°
2026-05-07 01:42 43.72679 -69.34681 16006 ft 249 kts 203°
2026-05-07 01:42 43.71019 -69.35372 16006 ft 249 kts 203°
2026-05-07 01:42 43.69357 -69.36061 16004 ft 249 kts 203°
2026-05-07 01:43 43.67699 -69.36750 16010 ft 249 kts 203°
2026-05-07 01:43 43.66035 -69.37440 16009 ft 249 kts 203°
2026-05-07 01:43 43.64382 -69.38126 16007 ft 248 kts 204°
2026-05-07 01:43 43.62748 -69.38803 16008 ft 248 kts 203°
2026-05-07 01:44 43.61093 -69.39488 16007 ft 248 kts 204°
2026-05-07 01:44 43.59439 -69.40173 16006 ft 247 kts 204°
2026-05-07 01:44 43.57792 -69.40855 16007 ft 247 kts 204°
2026-05-07 01:44 43.56143 -69.41536 16008 ft 247 kts 203°
2026-05-07 01:45 43.54492 -69.42219 16007 ft 247 kts 204°
2026-05-07 01:45 43.52843 -69.42900 16007 ft 247 kts 204°
2026-05-07 01:45 43.51196 -69.43580 16008 ft 247 kts 204°
2026-05-07 01:45 43.49549 -69.44259 16007 ft 247 kts 204°
2026-05-07 01:46 43.47902 -69.44938 16010 ft 247 kts 204°
2026-05-07 01:46 43.46254 -69.45617 16007 ft 247 kts 204°
2026-05-07 01:46 43.44610 -69.46295 16007 ft 247 kts 204°
2026-05-07 01:46 43.42966 -69.46972 16008 ft 246 kts 204°
2026-05-07 01:47 43.41325 -69.47646 16008 ft 246 kts 204°
2026-05-07 01:47 43.39683 -69.48321 16007 ft 246 kts 204°
2026-05-07 01:47 43.38044 -69.48995 16009 ft 246 kts 204°
2026-05-07 01:47 43.36422 -69.49669 15678 ft 236 kts 204°
2026-05-07 01:48 43.34906 -69.50278 15279 ft 224 kts 204°
2026-05-07 01:48 43.33439 -69.50873 14886 ft 215 kts 204°
2026-05-07 01:48 43.32020 -69.51464 14495 ft 214 kts 204°
2026-05-07 01:48 43.30568 -69.52064 14123 ft 221 kts 204°
2026-05-07 01:49 43.29080 -69.52676 13745 ft 225 kts 204°
2026-05-07 01:49 43.27569 -69.53294 13344 ft 228 kts 204°
2026-05-07 01:49 43.26044 -69.53916 12925 ft 229 kts 204°
2026-05-07 01:49 43.24510 -69.54544 12511 ft 230 kts 203°
2026-05-07 01:50 43.22970 -69.55173 12102 ft 231 kts 203°
2026-05-07 01:50 43.21427 -69.55803 11700 ft 232 kts 203°
2026-05-07 01:50 43.19877 -69.56435 11300 ft 232 kts 203°
2026-05-07 01:50 43.18327 -69.57068 10907 ft 232 kts 203°
2026-05-07 01:51 43.16796 -69.57693 10526 ft 233 kts 203°
2026-05-07 01:51 43.15246 -69.58323 10250 ft 229 kts 202°
2026-05-07 01:51 43.13743 -69.58930 10125 ft 221 kts 202°
2026-05-07 01:51 43.12297 -69.59520 10065 ft 213 kts 203°
2026-05-07 01:52 43.10899 -69.60090 10034 ft 207 kts 203°
2026-05-07 01:52 43.09539 -69.60644 10017 ft 201 kts 203°
2026-05-07 01:52 43.08210 -69.61188 10011 ft 198 kts 203°
2026-05-07 01:52 43.06899 -69.61721 10011 ft 195 kts 203°
2026-05-07 01:53 43.05602 -69.62248 10009 ft 194 kts 203°
2026-05-07 01:53 43.04327 -69.62766 10007 ft 193 kts 203°
2026-05-07 01:53 43.03046 -69.63287 10007 ft 192 kts 203°
2026-05-07 01:53 43.01766 -69.63807 10005 ft 192 kts 204°
2026-05-07 01:54 43.00487 -69.64325 10004 ft 191 kts 204°
2026-05-07 01:54 42.99214 -69.64842 10007 ft 191 kts 203°
2026-05-07 01:54 42.97943 -69.65357 10011 ft 191 kts 204°
2026-05-07 01:54 42.96671 -69.65872 10007 ft 191 kts 204°
2026-05-07 01:55 42.95371 -69.66399 10013 ft 204 kts 203°
2026-05-07 01:55 42.93950 -69.66983 10014 ft 220 kts 203°
2026-05-07 01:55 42.92442 -69.67590 10012 ft 231 kts 203°
2026-05-07 01:55 42.90878 -69.68219 10010 ft 237 kts 203°
2026-05-07 01:56 42.89285 -69.68864 10013 ft 241 kts 203°
2026-05-07 01:56 42.87666 -69.69513 10009 ft 243 kts 203°
2026-05-07 01:56 42.86039 -69.70170 10011 ft 244 kts 203°
2026-05-07 01:56 42.84408 -69.70828 10012 ft 245 kts 203°
2026-05-07 01:57 42.82793 -69.71477 10011 ft 245 kts 203°
2026-05-07 01:57 42.81158 -69.72140 10013 ft 245 kts 203°
2026-05-07 01:57 42.79517 -69.72797 10013 ft 245 kts 203°
2026-05-07 01:57 42.77877 -69.73457 10011 ft 245 kts 203°
2026-05-07 01:58 42.76244 -69.74117 10012 ft 245 kts 203°
2026-05-07 01:58 42.74609 -69.74772 10013 ft 245 kts 203°
2026-05-07 01:58 42.72978 -69.75428 10013 ft 244 kts 203°
2026-05-07 01:58 42.71341 -69.76086 10017 ft 245 kts 203°
2026-05-07 01:59 42.69707 -69.76741 10018 ft 245 kts 203°
2026-05-07 01:59 42.68075 -69.77396 10021 ft 244 kts 203°
2026-05-07 01:59 42.66442 -69.78052 10016 ft 244 kts 203°
2026-05-07 01:59 42.64832 -69.78697 10017 ft 244 kts 203°
2026-05-07 02:00 42.63203 -69.79348 10020 ft 244 kts 203°
2026-05-07 02:00 42.61572 -69.80002 10026 ft 244 kts 203°
2026-05-07 02:00 42.59942 -69.80655 10019 ft 244 kts 203°
2026-05-07 02:00 42.58314 -69.81306 10022 ft 244 kts 203°
2026-05-07 02:01 42.56685 -69.81956 10021 ft 244 kts 203°
2026-05-07 02:01 42.55058 -69.82607 10028 ft 244 kts 203°
2026-05-07 02:01 42.53429 -69.83259 10021 ft 243 kts 203°
2026-05-07 02:01 42.51807 -69.83905 10026 ft 243 kts 203°
2026-05-07 02:02 42.50186 -69.84550 10025 ft 242 kts 203°
2026-05-07 02:02 42.48572 -69.85194 10029 ft 242 kts 203°
2026-05-07 02:02 42.46960 -69.85838 10031 ft 241 kts 203°
2026-05-07 02:02 42.45364 -69.86471 10025 ft 242 kts 203°
2026-05-07 02:03 42.43745 -69.87116 10026 ft 242 kts 203°
2026-05-07 02:03 42.42136 -69.87759 10025 ft 241 kts 203°
2026-05-07 02:03 42.40523 -69.88398 10027 ft 241 kts 203°
2026-05-07 02:03 42.38910 -69.89039 10030 ft 241 kts 204°
2026-05-07 02:04 42.37299 -69.89680 10032 ft 241 kts 204°
2026-05-07 02:04 42.35685 -69.90319 10034 ft 242 kts 203°
2026-05-07 02:04 42.34073 -69.90959 10035 ft 242 kts 204°
2026-05-07 02:04 42.32457 -69.91601 10038 ft 242 kts 204°
2026-05-07 02:05 42.30842 -69.92241 10036 ft 242 kts 203°
2026-05-07 02:05 42.29222 -69.92882 10039 ft 242 kts 203°
2026-05-07 02:05 42.27603 -69.93522 10039 ft 242 kts 204°
2026-05-07 02:05 42.26010 -69.94154 10044 ft 242 kts 204°
2026-05-07 02:06 42.24390 -69.94795 10028 ft 243 kts 204°
2026-05-07 02:06 42.22767 -69.95435 10010 ft 243 kts 204°
2026-05-07 02:06 42.21143 -69.96077 10005 ft 243 kts 204°
2026-05-07 02:06 42.19522 -69.96717 10002 ft 243 kts 204°
2026-05-07 02:07 42.17904 -69.97355 10005 ft 242 kts 204°
2026-05-07 02:07 42.14662 -69.98634 10004 ft 242 kts 204°
2026-05-07 02:07 42.13045 -69.99270 10004 ft 242 kts 204°
2026-05-07 02:08 42.11429 -69.99907 10005 ft 241 kts 204°
2026-05-07 02:08 42.09837 -70.00533 10005 ft 241 kts 204°
2026-05-07 02:08 42.08225 -70.01167 10008 ft 241 kts 204°
2026-05-07 02:08 42.06608 -70.01803 10010 ft 241 kts 204°
2026-05-07 02:09 42.04998 -70.02436 10009 ft 241 kts 204°
2026-05-07 02:09 42.03429 -70.03178 10012 ft 233 kts 218°
2026-05-07 02:09 42.02423 -70.04782 10011 ft 225 kts 242°
2026-05-07 02:09 42.01689 -70.06647 10011 ft 225 kts 245°
2026-05-07 02:10 42.01040 -70.08570 10007 ft 226 kts 247°
2026-05-07 02:10 42.00427 -70.10515 10013 ft 226 kts 248°
2026-05-07 02:10 41.99831 -70.12470 10007 ft 226 kts 248°
2026-05-07 02:10 41.99275 -70.14414 10007 ft 226 kts 252°
2026-05-07 02:11 41.98855 -70.16449 10006 ft 226 kts 253°
2026-05-07 02:11 41.98382 -70.18464 10007 ft 225 kts 252°
2026-05-07 02:11 41.97923 -70.20479 10012 ft 226 kts 253°
2026-05-07 02:11 41.97472 -70.22498 10013 ft 226 kts 252°
2026-05-07 02:12 41.97006 -70.24519 10009 ft 226 kts 252°
2026-05-07 02:12 41.96547 -70.26543 10008 ft 226 kts 252°
2026-05-07 02:12 41.96085 -70.28572 10008 ft 227 kts 252°
2026-05-07 02:12 41.95622 -70.30595 10007 ft 227 kts 252°
2026-05-07 02:13 41.95161 -70.32618 9946 ft 229 kts 252°
2026-05-07 02:13 41.94692 -70.34702 9525 ft 230 kts 253°
2026-05-07 02:13 41.94234 -70.36693 9052 ft 218 kts 251°
2026-05-07 02:13 41.93779 -70.38595 8585 ft 211 kts 252°
2026-05-07 02:14 41.93361 -70.40460 8127 ft 207 kts 252°
2026-05-07 02:14 41.92949 -70.42275 7685 ft 204 kts 252°
2026-05-07 02:14 41.92531 -70.44088 7239 ft 203 kts 252°
2026-05-07 02:14 41.92117 -70.45897 6803 ft 202 kts 251°
2026-05-07 02:15 41.91702 -70.47705 6372 ft 202 kts 251°
2026-05-07 02:15 41.91288 -70.49508 5927 ft 202 kts 251°
2026-05-07 02:15 41.90874 -70.51305 5474 ft 201 kts 251°
2026-05-07 02:15 41.90467 -70.53070 5219 ft 193 kts 251°
2026-05-07 02:16 41.90081 -70.54739 5103 ft 182 kts 251°
2026-05-07 02:16 41.89714 -70.56314 5056 ft 172 kts 251°
2026-05-07 02:16 41.89367 -70.57823 5031 ft 171 kts 251°
2026-05-07 02:16 41.88985 -70.59460 5021 ft 194 kts 252°
2026-05-07 02:17 41.88590 -70.61245 5009 ft 205 kts 252°
2026-05-07 02:17 41.88163 -70.63089 5005 ft 212 kts 251°
2026-05-07 02:17 41.87714 -70.64989 4999 ft 215 kts 252°
2026-05-07 02:17 41.87268 -70.66920 4998 ft 217 kts 252°
2026-05-07 02:18 41.86818 -70.68861 5000 ft 218 kts 252°
2026-05-07 02:18 41.86365 -70.70803 4997 ft 219 kts 252°
2026-05-07 02:18 41.85910 -70.72752 5001 ft 219 kts 251°
2026-05-07 02:18 41.85453 -70.74703 4997 ft 219 kts 252°
2026-05-07 02:19 41.85001 -70.76661 4998 ft 219 kts 252°
2026-05-07 02:19 41.84544 -70.78611 4998 ft 219 kts 252°
2026-05-07 02:19 41.84090 -70.80557 5001 ft 219 kts 252°
2026-05-07 02:19 41.83635 -70.82501 5000 ft 218 kts 252°
2026-05-07 02:20 41.83177 -70.84461 5003 ft 222 kts 252°
2026-05-07 02:20 41.82714 -70.86453 5001 ft 225 kts 252°
2026-05-07 02:20 41.82243 -70.88461 5001 ft 226 kts 252°
2026-05-07 02:20 41.81775 -70.90467 4998 ft 226 kts 252°
2026-05-07 02:21 41.81305 -70.92451 4999 ft 226 kts 252°
2026-05-07 02:21 41.80834 -70.94464 5004 ft 226 kts 252°
2026-05-07 02:21 41.80361 -70.96481 4998 ft 227 kts 252°
2026-05-07 02:21 41.79885 -70.98502 5000 ft 228 kts 252°
2026-05-07 02:22 41.79408 -71.00530 4998 ft 228 kts 252°
2026-05-07 02:22 41.78929 -71.02547 4998 ft 227 kts 252°
2026-05-07 02:22 41.78459 -71.04565 4991 ft 226 kts 252°
2026-05-07 02:22 41.77981 -71.06572 5004 ft 226 kts 252°
2026-05-07 02:23 41.77706 -71.07915 5006 ft 227 kts 258°
2026-05-07 02:23 41.77469 -71.10012 5001 ft 228 kts 261°
2026-05-07 02:23 41.77164 -71.12093 4998 ft 227 kts 255°
2026-05-07 02:23 41.76834 -71.14160 4993 ft 227 kts 258°
2026-05-07 02:24 41.76536 -71.16239 4997 ft 227 kts 257°
2026-05-07 02:24 41.76205 -71.18313 5002 ft 227 kts 257°
2026-05-07 02:24 41.75896 -71.20385 5001 ft 228 kts 257°
2026-05-07 02:24 41.75624 -71.22482 5004 ft 228 kts 267°
2026-05-07 02:25 41.76190 -71.24460 5013 ft 243 kts 307°
2026-05-07 02:25 41.77569 -71.25846 4996 ft 247 kts 312°
2026-05-07 02:25 41.78340 -71.27741 5000 ft 230 kts 272°
2026-05-07 02:25 41.77905 -71.29723 5000 ft 228 kts 233°
2026-05-07 02:26 41.76512 -71.30760 5004 ft 242 kts 194°
2026-05-07 02:26 41.74842 -71.30326 4991 ft 263 kts 158°
2026-05-07 02:26 41.73546 -71.28520 4993 ft 279 kts 127°
2026-05-07 02:26 41.72586 -71.26262 4994 ft 277 kts 129°
2026-05-07 02:27 41.71192 -71.24676 5002 ft 257 kts 167°
2026-05-07 02:27 41.69516 -71.24589 5010 ft 236 kts 205°
2026-05-07 02:27 41.68318 -71.25932 5013 ft 227 kts 243°
2026-05-07 02:27 41.68174 -71.28000 5005 ft 234 kts 283°
2026-05-07 02:28 41.69152 -71.29788 4993 ft 248 kts 312°
2026-05-07 02:28 41.70488 -71.31265 4991 ft 250 kts 314°
2026-05-07 02:28 41.71876 -71.32679 5001 ft 254 kts 324°
2026-05-07 02:28 41.73662 -71.33095 5010 ft 276 kts
2026-05-07 02:29 41.75433 -71.31998 4995 ft 290 kts 38°
2026-05-07 02:29 41.76537 -71.29781 5000 ft 294 kts 73°
2026-05-07 02:29 41.76644 -71.27103 5000 ft 288 kts 107°
2026-05-07 02:29 41.75727 -71.24828 4998 ft 273 kts 142°
2026-05-07 02:30 41.74142 -71.23646 5006 ft 257 kts 171°
2026-05-07 02:30 41.72429 -71.22988 4991 ft 256 kts 172°
2026-05-07 02:30 41.70717 -71.22634 4991 ft 241 kts 194°
2026-05-07 02:30 41.69324 -71.23637 5008 ft 227 kts 234°
2026-05-07 02:31 41.68895 -71.25610 5015 ft 230 kts 273°
2026-05-07 02:31 41.69500 -71.27634 5004 ft 239 kts 292°
2026-05-07 02:31 41.70280 -71.29610 4994 ft 240 kts 292°
2026-05-07 02:31 41.71125 -71.31542 4996 ft 242 kts 297°
2026-05-07 02:32 41.72153 -71.33342 4996 ft 240 kts 295°
2026-05-07 02:32 41.72425 -71.35407 5005 ft 228 kts 256°
2026-05-07 02:32 41.71634 -71.37219 4995 ft 228 kts 233°
2026-05-07 02:32 41.70661 -71.38898 4989 ft 228 kts 235°
2026-05-07 02:33 41.69724 -71.40613 5001 ft 228 kts 236°
2026-05-07 02:33 41.68841 -71.42380 5001 ft 228 kts 239°
2026-05-07 02:33 41.68254 -71.44332 5002 ft 228 kts 255°
2026-05-07 02:33 41.67988 -71.46423 5001 ft 228 kts 262°
2026-05-07 02:34 41.67907 -71.48551 5005 ft 230 kts 267°
2026-05-07 02:34 41.67927 -71.50707 5003 ft 232 kts 269°
2026-05-07 02:34 41.68022 -71.52858 5012 ft 233 kts 273°
2026-05-07 02:34 41.68342 -71.55003 5005 ft 236 kts 278°
2026-05-07 02:35 41.68628 -71.57150 4995 ft 234 kts 275°
2026-05-07 02:35 41.68893 -71.59293 4990 ft 233 kts 276°
2026-05-07 02:35 41.69328 -71.61364 4999 ft 236 kts 285°
2026-05-07 02:35 41.69984 -71.63388 4996 ft 237 kts 290°
2026-05-07 02:36 41.70888 -71.65258 4997 ft 244 kts 304°
2026-05-07 02:36 41.72086 -71.66887 5001 ft 248 kts 313°
2026-05-07 02:36 41.73576 -71.68130 5001 ft 256 kts 327°
2026-05-07 02:36 41.75262 -71.68975 5002 ft 264 kts 340°
2026-05-07 02:37 41.77099 -71.69305 4977 ft 270 kts 351°
2026-05-07 02:37 41.78940 -71.69047 4646 ft 267 kts
2026-05-07 02:37 41.80684 -71.68311 4320 ft 261 kts 18°
2026-05-07 02:37 41.82255 -71.67105 3984 ft 259 kts 31°
2026-05-07 02:38 41.83547 -71.65404 3564 ft 262 kts 49°
2026-05-07 02:38 41.84577 -71.63399 3135 ft 258 kts 57°
2026-05-07 02:38 41.85276 -71.61235 2812 ft 246 kts 67°
2026-05-07 02:38 41.85600 -71.59061 2642 ft 232 kts 94°
2026-05-07 02:39 41.85240 -71.57046 2552 ft 216 kts 122°
2026-05-07 02:39 41.84420 -71.55389 2218 ft 218 kts 134°
2026-05-07 02:39 41.83384 -71.53966 1993 ft 206 kts 148°
2026-05-07 02:39 41.82292 -71.52855 1914 ft 188 kts 152°
2026-05-07 02:40 41.81251 -71.51823 1590 ft 191 kts 151°
2026-05-07 02:40 41.80207 -71.50747 1270 ft 186 kts 146°
2026-05-07 02:40 41.79260 -71.49646 1118 ft 170 kts 144°
2026-05-07 02:40 41.78447 -71.48773 1038 ft 134 kts 148°
2026-05-07 02:41 41.77761 -71.48076 1003 ft 115 kts 148°
2026-05-07 02:41 41.77155 -71.47444 943 ft 112 kts 147°
2026-05-07 02:41 41.76517 -71.46772 814 ft 119 kts 148°
2026-05-07 02:41 41.75849 -71.46042 660 ft 132 kts 145°
2026-05-07 02:42 41.75102 -71.45300 508 ft 139 kts 148°
2026-05-07 02:42 41.74363 -71.44476 361 ft 137 kts 144°
2026-05-07 02:42 41.73671 -71.43755 229 ft 118 kts 146°
2026-05-07 02:42 41.73033 -71.43074 94 ft 113 kts 144°
2026-05-07 02:43 41.72467 -71.42492 53 ft 89 kts 144°
2026-05-07 02:43 41.72148 -71.42167 60 ft 43 kts 141°
2026-05-07 02:43 41.71984 -71.41982 59 ft 27 kts 140°
2026-05-07 02:43 41.71883 -71.41880 60 ft 12 kts 156°
2026-05-07 02:44 41.71838 -71.41927 61 ft 13 kts 279°
2026-05-07 02:44 41.71931 -71.42052 60 ft 25 kts 318°
2026-05-07 02:44 41.72073 -71.42215 61 ft 30 kts 323°
2026-05-07 02:44 41.72249 -71.42392 60 ft 28 kts 317°
2026-05-07 02:45 41.72393 -71.42554 56 ft 19 kts 310°
2026-05-07 02:45 41.72477 -71.42709 54 ft 20 kts 326°
2026-05-07 02:45 41.72569 -71.42671 51 ft 21 kts 34°
2026-05-07 02:45 41.72670 -71.42585 50 ft 17 kts 32°
2026-05-07 02:46 41.72801 -71.42640 54 ft 25 kts 335°
2026-05-07 02:46 41.72977 -71.42706 53 ft 26 kts 343°
2026-05-07 02:46 41.73127 -71.42760 58 ft 14 kts 343°
2026-05-07 02:46 41.73168 -71.42853 58 ft 17 kts 271°
2026-05-07 02:47 41.73178 -71.42973 53 ft 11 kts 323°
2026-05-07 02:47 41.73189 -71.42987 59 ft 3 kts 339°
2026-05-07 02:47 41.73198 -71.42977 55 ft 1 kts 95°
2026-05-07 02:47 41.73194 -71.42969 56 ft 0 kts 156°